TimeEST,TemperatureF,Dew PointF,Humidity,Sea Level PressureIn,VisibilityMPH,Wind Direction,Wind SpeedMPH,Gust SpeedMPH,PrecipitationIn,Events,Conditions,WindDirDegrees,DateUTC
12:56 AM,9.0,6.1,88,30.38,10.0,Calm,Calm,-,N/A,,Scattered Clouds,0,2013-02-11 05:56:00
1:56 AM,8.1,3.9,83,30.35,10.0,Calm,Calm,-,N/A,,Clear,0,2013-02-11 06:56:00
2:56 AM,12.0,7.0,80,30.33,10.0,Calm,Calm,-,N/A,,Clear,0,2013-02-11 07:56:00
3:56 AM,14.0,8.1,77,30.31,10.0,Calm,Calm,-,N/A,,Clear,0,2013-02-11 08:56:00
4:56 AM,16.0,9.0,74,30.28,10.0,Calm,Calm,-,N/A,,Clear,0,2013-02-11 09:56:00
5:56 AM,17.1,12.0,81,30.29,10.0,Calm,Calm,-,N/A,,Partly Cloudy,0,2013-02-11 10:56:00
6:56 AM,19.9,14.0,78,30.26,10.0,Calm,Calm,-,N/A,,Overcast,0,2013-02-11 11:56:00
7:56 AM,23.0,15.1,72,30.23,10.0,Calm,Calm,-,N/A,,Overcast,0,2013-02-11 12:56:00
8:56 AM,27.0,21.0,78,30.18,5.0,ESE,5.8,-,0.01,Snow,Light Snow,120,2013-02-11 13:56:00
9:56 AM,32.0,28.0,85,30.12,7.0,SE,9.2,-,0.02,,Overcast,140,2013-02-11 14:56:00
10:37 AM,33.8,30.2,87,30.04,3.0,Variable,3.5,-,0.02,Rain,Rain,0,2013-02-11 15:37:00
10:56 AM,33.1,32.0,96,30.08,3.0,Calm,Calm,-,0.04,Rain,Light Rain,0,2013-02-11 15:56:00
11:15 AM,33.8,32.0,93,30.00,2.0,Calm,Calm,-,0.01,Rain,Light Rain,0,2013-02-11 16:15:00
11:52 AM,33.8,33.8,100,29.95,1.5,ENE,3.5,-,0.03,Rain,Light Rain,60,2013-02-11 16:52:00
11:56 AM,33.1,33.1,100,30.00,1.5,ENE,3.5,-,0.03,Rain,Light Rain,60,2013-02-11 16:56:00
12:56 PM,35.1,35.1,100,29.93,1.2,Calm,Calm,-,0.07,Rain,Rain,0,2013-02-11 17:56:00
1:13 PM,35.6,35.6,100,29.85,3.0,SSE,3.5,-,0.01,Rain,Light Rain,160,2013-02-11 18:13:00
1:38 PM,37.4,37.4,100,29.82,2.5,South,3.5,-,0.02,Rain,Light Rain,170,2013-02-11 18:38:00
1:53 PM,37.4,37.4,100,29.81,1.0,South,3.5,-,0.02,Rain,Light Rain,170,2013-02-11 18:53:00
1:56 PM,37.0,37.0,100,29.86,1.0,South,4.6,-,0.02,Rain,Light Rain,190,2013-02-11 18:56:00
2:56 PM,36.0,36.0,100,29.83,1.0,WNW,5.8,-,0.01,Rain,Light Rain,300,2013-02-11 19:56:00
3:56 PM,34.0,34.0,100,29.80,1.0,Calm,Calm,-,0.03,Rain,Light Rain,0,2013-02-11 20:56:00
4:51 PM,33.8,33.8,100,29.71,0.8,Calm,Calm,-,0.00,,Overcast,0,2013-02-11 21:51:00
4:56 PM,33.1,33.1,100,29.76,0.8,Calm,Calm,-,0.00,,Overcast,0,2013-02-11 21:56:00
5:56 PM,33.1,30.9,92,29.74,0.8,Calm,Calm,-,N/A,,Overcast,0,2013-02-11 22:56:00
6:56 PM,33.1,33.1,100,29.73,0.5,Calm,Calm,-,N/A,Fog,Fog,0,2013-02-11 23:56:00
7:56 PM,33.1,33.1,100,29.69,0.5,Calm,Calm,-,N/A,Fog,Fog,0,2013-02-12 00:56:00
8:56 PM,33.1,33.1,100,29.67,0.5,Calm,Calm,-,N/A,Fog,Fog,0,2013-02-12 01:56:00
9:48 PM,33.8,33.8,100,29.62,1.0,NW,5.8,-,N/A,Fog,Fog,310,2013-02-12 02:48:00
9:56 PM,33.1,33.1,100,29.67,1.2,WNW,3.5,-,N/A,Fog,Fog,290,2013-02-12 02:56:00
10:03 PM,33.8,33.8,100,29.62,2.0,Calm,Calm,-,N/A,,Overcast,0,2013-02-12 03:03:00
10:34 PM,33.8,33.8,100,29.60,1.8,Calm,Calm,-,N/A,,Overcast,0,2013-02-12 03:34:00
10:56 PM,33.1,33.1,100,29.65,1.5,WNW,3.5,-,N/A,,Overcast,290,2013-02-12 03:56:00
11:08 PM,33.8,33.8,100,29.60,2.0,Calm,Calm,-,N/A,,Overcast,0,2013-02-12 04:08:00
11:17 PM,33.8,33.8,100,29.61,1.8,West,3.5,-,N/A,,Overcast,270,2013-02-12 04:17:00
11:29 PM,33.8,33.8,100,29.61,2.0,West,3.5,-,N/A,,Overcast,280,2013-02-12 04:29:00
11:51 PM,33.8,33.8,100,29.61,3.0,West,5.8,-,N/A,,Mostly Cloudy,260,2013-02-12 04:51:00
11:56 PM,33.1,33.1,100,29.65,3.0,West,4.6,-,N/A,,Overcast,260,2013-02-12 04:56:00